| time (UTC) | temp F | wind direction | speed MPH | gust MPH | rain 1hr in | rain 24hr in | rain mn in | humidity % | barometer mb |
| 20260507211504 | 52 | 168 | 0.0 | 5.0 | 0.00 | 0.81 | 0.81 | 96 | 1003.0 |
| 20260507210003 | 52 | 223 | 4.0 | 11.0 | 0.02 | 0.81 | 0.81 | 95 | 1002.5 |
| 20260507204502 | 52 | 253 | 4.0 | 10.0 | 0.02 | 0.81 | 0.81 | 95 | 1002.1 |
| 20260507203004 | 52 | 183 | 3.0 | 8.0 | 0.04 | 0.81 | 0.81 | 96 | 1001.6 |
| 20260507201612 | 52 | 199 | 3.0 | 9.0 | 0.07 | 0.81 | 0.81 | 95 | 1001.8 |
| 20260507200104 | 52 | 195 | 2.0 | 11.0 | 0.10 | 0.80 | 0.80 | 95 | 1001.8 |
| 20260507194557 | 53 | 171 | 3.0 | 8.0 | 0.17 | 0.79 | 0.79 | 95 | 1002.7 |
| 20260507193053 | 53 | 350 | 2.0 | 9.0 | 0.21 | 0.77 | 0.77 | 96 | 1002.7 |
| 20260507191553 | 53 | 126 | 2.0 | 4.0 | 0.26 | 0.74 | 0.74 | 96 | 1003.3 |
| 20260507190048 | 52 | 213 | 1.0 | 3.0 | 0.28 | 0.69 | 0.69 | 96 | 1004.1 |
| 20260507184547 | 52 | 209 | 2.0 | 8.0 | 0.31 | 0.62 | 0.62 | 96 | 1004.5 |
| 20260507183045 | 52 | 204 | 3.0 | 8.0 | 0.41 | 0.55 | 0.55 | 96 | 1004.6 |
| 20260507181544 | 52 | 170 | 3.0 | 9.0 | 0.45 | 0.48 | 0.48 | 95 | 1004.7 |
| 20260507180046 | 51 | 171 | 2.0 | 9.0 | 0.37 | 0.39 | 0.39 | 95 | 1005.1 |
| 20260507174543 | 51 | 227 | 3.0 | 7.0 | 0.31 | 0.31 | 0.31 | 95 | 1005.7 |
| 20260507173041 | 51 | 211 | 2.0 | 9.0 | 0.13 | 0.13 | 0.13 | 94 | 1005.6 |
| 20260507171541 | 51 | 201 | 4.0 | 16.0 | 0.03 | 0.03 | 0.03 | 94 | 1005.0 |
| 20260507170038 | 51 | 218 | 1.0 | 13.0 | 0.02 | 0.02 | 0.02 | 94 | 1004.9 |
| 20260507164536 | 51 | 191 | 5.0 | 18.0 | 0.00 | 0.00 | 0.00 | 93 | 1005.2 |
| 20260507163033 | 52 | 208 | 6.0 | 12.0 | 0.00 | 0.00 | 0.00 | 92 | 1005.8 |
| 20260507161531 | 52 | 162 | 7.0 | 15.0 | 0.00 | 0.00 | 0.00 | 92 | 1006.2 |
| 20260507160034 | 52 | 195 | 8.0 | 16.0 | 0.00 | 0.00 | 0.00 | 92 | 1006.5 |
| 20260507154529 | 53 | 195 | 4.0 | 16.0 | 0.00 | 0.00 | 0.00 | 92 | 1006.8 |
| 20260507153031 | 53 | 164 | 6.0 | 19.0 | 0.00 | 0.00 | 0.00 | 91 | 1007.0 |
| 20260507151522 | 54 | 151 | 8.0 | 17.0 | 0.00 | 0.00 | 0.00 | 90 | 1007.5 |
| 20260507150022 | 55 | 187 | 9.0 | 22.0 | 0.00 | 0.00 | 0.00 | 89 | 1007.9 |
| 20260507144520 | 55 | 143 | 7.0 | 15.0 | 0.00 | 0.00 | 0.00 | 90 | 1008.2 |
| 20260507143020 | 55 | 174 | 8.0 | 16.0 | 0.00 | 0.00 | 0.00 | 90 | 1008.3 |
| 20260507141517 | 55 | 155 | 6.0 | 13.0 | 0.00 | 0.00 | 0.00 | 91 | 1008.2 |
| 20260507140024 | 54 | 180 | 5.0 | 16.0 | 0.00 | 0.00 | 0.00 | 91 | 1008.6 |
| 20260507134513 | 54 | 205 | 5.0 | 17.0 | 0.00 | 0.00 | 0.00 | 91 | 1009.0 |
| 20260507133012 | 55 | 217 | 7.0 | 20.0 | 0.00 | 0.00 | 0.00 | 91 | 1009.1 |
| 20260507131511 | 55 | 186 | 10.0 | 16.0 | 0.00 | 0.00 | 0.00 | 91 | 1009.1 |
| 20260507130009 | 55 | 177 | 5.0 | 20.0 | 0.00 | 0.00 | 0.00 | 91 | 1009.3 |
| 20260507124513 | 55 | 190 | 7.0 | 13.0 | 0.00 | 0.00 | 0.00 | 92 | 1009.5 |
| 20260507123006 | 54 | 205 | 5.0 | 15.0 | 0.00 | 0.00 | 0.00 | 92 | 1009.4 |
| 20260507121504 | 54 | 350 | 5.0 | 22.0 | 0.00 | 0.00 | 0.00 | 93 | 1009.2 |
| 20260507114558 | 53 | 185 | 8.0 | 16.0 | 0.00 | 0.00 | 0.00 | 94 | 1009.5 |
| 20260507113055 | 53 | 176 | 7.0 | 14.0 | 0.00 | 0.00 | 0.00 | 94 | 1009.9 |
| 20260507111554 | 53 | 138 | 6.0 | 15.0 | 0.00 | 0.00 | 0.00 | 95 | 1010.1 |
| 20260507110053 | 53 | 199 | 4.0 | 16.0 | 0.00 | 0.00 | 0.00 | 95 | 1010.1 |
| 20260507104548 | 52 | 147 | 4.0 | 14.0 | 0.00 | 0.00 | 0.00 | 95 | 1010.3 |
| 20260507103046 | 52 | 163 | 5.0 | 12.0 | 0.00 | 0.00 | 0.00 | 95 | 1010.5 |
| 20260507101600 | 52 | 191 | 5.0 | 12.0 | 0.00 | 0.00 | 0.00 | 95 | 1010.3 |
| 20260507100042 | 52 | 158 | 4.0 | 9.0 | 0.00 | 0.00 | 0.00 | 95 | 1011.2 |
| 20260507094551 | 52 | 147 | 4.0 | 13.0 | 0.00 | 0.00 | 0.00 | 95 | 1011.0 |
| 20260507093039 | 52 | 184 | 3.0 | 9.0 | 0.00 | 0.00 | 0.00 | 95 | 1011.5 |
| 20260507091553 | 52 | 199 | 5.0 | 9.0 | 0.00 | 0.00 | 0.00 | 95 | 1011.5 |
| 20260507090043 | 52 | 188 | 3.0 | 16.0 | 0.00 | 0.00 | 0.00 | 95 | 1011.5 |
| 20260507084536 | 52 | 189 | 5.0 | 12.0 | 0.00 | 0.00 | 0.00 | 95 | 1011.4 |
| 20260507083032 | 51 | 192 | 6.0 | 11.0 | 0.00 | 0.00 | 0.00 | 95 | 1012.0 |
| 20260507081538 | 51 | 182 | 4.0 | 10.0 | 0.00 | 0.00 | 0.00 | 95 | 1011.9 |
| 20260507080025 | 51 | 188 | 3.0 | 9.0 | 0.00 | 0.00 | 0.00 | 95 | 1011.9 |
| 20260507074529 | 51 | 172 | 3.0 | 8.0 | 0.00 | 0.00 | 0.00 | 95 | 1012.1 |
| 20260507073022 | 50 | 156 | 3.0 | 6.0 | 0.00 | 0.00 | 0.00 | 94 | 1012.4 |
| 20260507071521 | 50 | 170 | 2.0 | 8.0 | 0.00 | 0.00 | 0.00 | 94 | 1012.6 |
| 20260507070017 | 50 | 206 | 2.0 | 7.0 | 0.00 | 0.00 | 0.00 | 94 | 1013.4 |
| 20260507064519 | 51 | 172 | 2.0 | 10.0 | 0.00 | 0.00 | 0.00 | 94 | 1013.4 |
| 20260507063016 | 51 | 172 | 3.0 | 7.0 | 0.00 | 0.00 | 0.00 | 94 | 1013.5 |
| 20260507061528 | 51 | 350 | 4.0 | 9.0 | 0.00 | 0.00 | 0.00 | 94 | 1013.5 |
| 20260507060025 | 51 | 202 | 3.0 | 8.0 | 0.00 | 0.00 | 0.00 | 94 | 1013.8 |
| 20260507054512 | 51 | 173 | 4.0 | 9.0 | 0.00 | 0.00 | 0.00 | 94 | 1013.6 |
| 20260507053011 | 51 | 192 | 1.0 | 5.0 | 0.00 | 0.00 | 0.00 | 94 | 1014.3 |
| 20260507051505 | 50 | 253 | 0.0 | 0.0 | 0.00 | 0.00 | 0.00 | 94 | 1014.6 |
| 20260507050006 | 50 | 253 | 0.0 | 0.0 | 0.00 | 0.00 | 0.00 | 94 | 1015.0 |
| 20260507044501 | 50 | 244 | 0.0 | 0.0 | 0.00 | 0.00 | 0.00 | 94 | 1015.3 |
| 20260507043058 | 50 | 242 | 0.0 | 3.0 | 0.00 | 0.00 | 0.00 | 94 | 1015.8 |
| 20260507041555 | 49 | 242 | 1.0 | 3.0 | 0.00 | 0.00 | 0.00 | 94 | 1016.1 |
| 20260507040053 | 48 | 245 | 1.0 | 2.0 | 0.00 | 0.00 | 0.00 | 94 | 1016.3 |
| 20260507034551 | 48 | 245 | 0.0 | 2.0 | 0.00 | 0.00 | 0.00 | 93 | 1016.8 |
| 20260507033048 | 48 | 244 | 0.0 | 2.0 | 0.00 | 0.00 | 0.00 | 93 | 1017.0 |
| 20260507031547 | 49 | 244 | 0.0 | 3.0 | 0.00 | 0.00 | 0.00 | 92 | 1017.2 |
| 20260507030046 | 49 | 244 | 1.0 | 3.0 | 0.00 | 0.00 | 0.00 | 92 | 1017.4 |
| 20260507024544 | 49 | 244 | 2.0 | 4.0 | 0.00 | 0.00 | 0.00 | 92 | 1017.4 |
| 20260507023040 | 50 | 230 | 2.0 | 4.0 | 0.00 | 0.00 | 0.00 | 92 | 1017.4 |
| 20260507021539 | 50 | 208 | 2.0 | 8.0 | 0.00 | 0.00 | 0.00 | 91 | 1017.5 |
| 20260506231543 | 55 | 211 | 6.0 | 12.0 | 0.00 | 0.00 | 0.00 | 81 | 1017.7 |
| 20260506230043 | 55 | 194 | 7.0 | 16.0 | 0.00 | 0.00 | 0.00 | 80 | 1017.7 |
| 20260506224540 | 55 | 178 | 4.0 | 14.0 | 0.00 | 0.00 | 0.00 | 79 | 1017.6 |
| 20260506223038 | 56 | 215 | 6.0 | 15.0 | 0.00 | 0.00 | 0.00 | 77 | 1017.4 |
| 20260506221537 | 56 | 201 | 5.0 | 16.0 | 0.00 | 0.00 | 0.00 | 75 | 1017.3 |
| 20260506220038 | 58 | 217 | 8.0 | 19.0 | 0.00 | 0.00 | 0.00 | 73 | 1017.2 |
| 20260506214535 | 59 | 172 | 8.0 | 15.0 | 0.00 | 0.00 | 0.00 | 72 | 1017.3 |
| 20260506213034 | 60 | 177 | 9.0 | 17.0 | 0.00 | 0.00 | 0.00 | 70 | 1017.2 |